Regional Weather Roundup
Issued by NWS

Home | Current Version | Previous Version | Text Only | Print | Product List | Glossary Off
Versions: 1 2 3 4 5 6 7 8 9 10 11 12 13 14 15 16 17 18 19 20 21 22 23 24 25 26 27 28 29 30 31 32 33 34 35 36 37 38 39 40 41 42 43 44 45 46 47 48 49 50

000
ASUS43 KLSX 260307
RWRMO

WEATHER SUMMARY FOR MISSOURI
NATIONAL WEATHER SERVICE SPRINGFIELD MO
1000 PM CDT MON SEP 25 2017

NOTE: "FAIR" INDICATES FEW OR NO CLOUDS BELOW 12,000 FEET WITH NO
       SIGNIFICANT WEATHER AND/OR OBSTRUCTIONS TO VISIBILITY.
       CURRENT SKY AND/OR WEATHER CONDITIONS ARE NOT AVAILABLE FOR
       CHILLICOTHE AND FARMINGTON.

MOZ001>031-035>038-043-044-053-054-260400-
...NORTHERN AND WESTERN MISSOURI...

CITY           SKY/WX    TMP DP  RH WIND       PRES   REMARKS
KANSAS CTY INT CLOUDY    68  65  90 W12G24    29.96R
KANSAS C DTWN  MOCLDY    72  67  84 W14G21    29.93R
LEE`S SUMMIT   CLOUDY    77  66  68 S6        29.92R
ST JOSEPH      HVY RAIN  65  65 100 N8        29.98R FOG
CHILLICOTHE      N/A     72  67  84 CALM      29.93R
KIRKSVILLE     CLEAR     69  64  84 CALM      29.93S

$$
MOZ066>068-077>081-088>096-101>105-260400-
...SOUTHWEST MISSOURI...

CITY           SKY/WX    TMP DP  RH WIND       PRES   REMARKS
SPRINGFIELD    CLEAR     74  62  66 SE8       29.94R
JOPLIN         CLEAR     72  67  84 SE5       29.92S
BRANSON        PTCLDY    73  63  68 S3        29.97R

$$
MOZ032>034-039>042-045>050-055>058-069>072-260400-
...CENTRAL MISSOURI...

CITY           SKY/WX    TMP DP  RH WIND       PRES   REMARKS
COLUMBIA       CLEAR     75  67  76 SE6       29.93S
JEFFERSON CITY CLEAR     72  66  81 CALM      29.92R
ROLLA          CLEAR     74  61  63 S8        29.96S
SEDALIA        CLEAR     73  68  84 SE5       29.93S
WHITEMAN AFB   PTCLDY    71  71 100 CALM      29.90S
WARRENSBURG    PTCLDY    72  64  78 CALM      29.91S
OSAGE BEACH    CLEAR     73  64  73 SE3       29.95R

$$
MOZ051-052-059>065-260400-
...EAST CENTRAL MISSOURI...

CITY           SKY/WX    TMP DP  RH WIND       PRES   REMARKS
ST LOUIS INTL  CLEAR     82  62  50 SE8       29.94R
SPIRIT OF STL  CLEAR     71  68  90 CALM      29.93R
ST CHARLES     CLEAR     73  66  78 CALM      29.92R

$$
MOZ072>076-082>087-097>100-106>115-260400-
...SOUTH CENTRAL AND SOUTHEAST MISSOURI...

CITY           SKY/WX    TMP DP  RH WIND       PRES   REMARKS
CAPE GIRARDEAU CLEAR     72  65  78 CALM      29.94R
FARMINGTON     CLEAR     69  62  78 CALM      29.98R
POPLAR BLUFF   CLEAR     69  66  90 CALM      29.94R
WEST PLAINS    CLEAR     73  62  68 CALM      29.98R

$$



USA.gov is the U.S. government's official web portal to all federal, state and local government web resources and services.